Regional Weather Roundup
Issued by NWS Green Bay, WI

Home | Current Version | Previous Version | Graphics & Text | Print | Product List | Glossary Off
Versions: 1 2 3 4 5 6 7 8 9 10 11 12 13 14 15 16 17 18 19 20 21 22 23 24 25 26 27 28 29 30 31 32 33 34 35 36 37 38 39 40 41 42 43 44 45 46 47 48 49 50

728
ASUS43 KGRB 241211
RWRGRB

NORTH-CENTRAL AND NORTHEAST WISCONSIN REGIONAL WEATHER ROUNDUP
NATIONAL WEATHER SERVICE GREEN BAY WI
700 AM CDT WED MAY 24 2017

WIZ005-009-010>012-018-019-241300-
NORTH CENTRAL WISCONSIN

CITY           SKY/WX    TMP DP  RH WIND       PRES   REMARKS
IRONWOOD       CLOUDY    44  43  96 NE5       29.81R
MANITOWISH WTR CLOUDY    45  45 100 N6        29.77F
ARBOR VITAE    CLOUDY    47  44  90 N6        29.76S
EAGLE RIVER    LGT RAIN  46  44  95 N8        29.76S
LAND O LAKES   CLOUDY    46  43  91 N6        29.78F FOG
RHINELANDER    CLOUDY    47  45  93 NE5       29.75S
PHILLIPS       CLOUDY    46  44  92 N9        29.77R
ANTIGO         LGT RAIN  46  46 100 NE8       29.73S
TOMAHAWK       CLOUDY    45  43  93 CALM      29.76S
MERRILL        RAIN      46  46 100 NE5       29.74F
$$

WIZ013-073-241300-
NORTHEAST WISCONSIN

CITY           SKY/WX    TMP DP  RH WIND       PRES   REMARKS
IRON MOUNTAIN  LGT RAIN  47  43  86 N7        29.74R FOG
MARINETTE      LGT RAIN  48  46  93 NE7       29.73S
OCONTO         CLOUDY    47  46  97 NE7       29.71S
$$

WIZ017-030-035>037-045-241300-
CENTRAL WISCONSIN

CITY           SKY/WX    TMP DP  RH WIND       PRES   REMARKS
MEDFORD        CLOUDY    45  43  92 NE9       29.74S
WAUSAU         CLOUDY    47  46  97 N5        29.72R
MOSINEE        DRIZZLE   46  46 100 N8        29.73S
MARSHFIELD     LGT RAIN  47  44  90 NE12      29.72S FOG
WISC RAPIDS    CLOUDY    49  47  93 N8        29.72S FOG
STEVENS POINT  DRIZZLE   46  46 100 N7        29.72S
WAUPACA        DRIZZLE   50  49  95 N6        29.71S
SHAWANO        CLOUDY    50  48  92 NE10      29.71F
CLINTONVILLE   CLOUDY    46  46 100 NE7       29.71S FOG
WAUTOMA        CLOUDY    48  47  96 NE9       29.70S FOG
$$

WIZ038-039-048-051-241300-
FOX VALLEY

CITY           SKY/WX    TMP DP  RH WIND       PRES   REMARKS
NWS GREEN BAY  CLOUDY    49  49 100 NE12      29.70S FOG
APPLETON       CLOUDY    48  48 100 NE9       29.68S FOG
OSHKOSH        FOG       50  48  93 NE9       29.68S VSB 1
FOND DU LAC    CLOUDY    51  48  89 NE8       29.68S
$$

WIZ022-050-052-241300-
EAST CENTRAL WISCONSIN

CITY           SKY/WX    TMP DP  RH WIND       PRES   REMARKS
EPHRAIM        CLOUDY    46  46 100 NE5       29.71S
WASHINGTON ISL CLOUDY    45  45  99 NE7       29.72S
STURGEON BAY   CLOUDY    48  46  93 NE9       29.71S
MANITOWOC      LGT RAIN  46  44  93 N6        29.70S VSB 3/4
SHEBOYGAN      CLOUDY    47  47 100 N6        29.68R FOG
$$

LMZ563-521-522-541>543-241300-
LAKESHORE

STATION/POSITION TIME  TEMP    WIND        PRES    VSBY  WAVE
                       AIR SEA DIR/SP/G                  HT/PER
                 (UTC) (F)     (DEG/KT/KT) (MB)    (MI)  (FT/S)
SHEBOYGAN LKSHOR 1200   44     360/ 16/ 17 1005.1S
KEWAUNEE LKSHORE 1142   46      30/ 10/ 14 1005.3R
NORTHPORT PIER   1140   47     330/  2/  3 1006.8R
N MID LAKE BUOY  1150   41 39   30/  8/  8 1007.5R         1/ 3
CHAMBERS ISLAND  1140   47      10/ 12/ 15 1006.1S
MENOMINEE LKSHOR 1142           10/ 10/ 13 1005.8R
$$




USA.gov is the U.S. government's official web portal to all federal, state and local government web resources and services.